KLM895 EHAM-LOWI

Flight info

Callsign KLM895
Flight time 1h 7m
Altitude 38000
Route RENDI2S EDUPO Z739 MISGO DCT DOJOH DCT DODEN DCT TABUM DCT HAREM T104 WLD M867 BAVAX Z106 MANAL M736 TULSI TULSI3A
Aircraft A20N/M-SDE2E3FGHIRWXY/LB1

Departure

Time 2026-04-19 04:40
Airport Amsterdam Airport Schiphol (EHAM)

Arrival

Time 2026-04-19 05:47
Airport Innsbruck Airport (LOWI)
Time Latitude Longitude Altitude Speed Heading
2026-04-19 04:27 52.30996 4.77179 -3 ft 0 kts 183°
2026-04-19 04:31 52.31010 4.77180 -3 ft 2 kts 183°
2026-04-19 04:31 52.31025 4.77182 -3 ft 2 kts 183°
2026-04-19 04:32 52.31040 4.77183 -3 ft 2 kts 183°
2026-04-19 04:32 52.31054 4.77184 -3 ft 2 kts 170°
2026-04-19 04:32 52.31069 4.77177 -3 ft 2 kts 142°
2026-04-19 04:32 52.31079 4.77160 -3 ft 2 kts 115°
2026-04-19 04:33 52.31083 4.77142 -3 ft 0 kts 94°
2026-04-19 04:33 52.31082 4.77156 -3 ft 3 kts 94°
2026-04-19 04:34 52.31080 4.77215 -3 ft 7 kts 94°
2026-04-19 04:34 52.31076 4.77318 -3 ft 11 kts 94°
2026-04-19 04:34 52.31084 4.77456 -3 ft 14 kts 58°
2026-04-19 04:34 52.31151 4.77571 -3 ft 16 kts 71°
2026-04-19 04:35 52.31243 4.77644 -3 ft 17 kts
2026-04-19 04:35 52.31368 4.77661 -3 ft 19 kts
2026-04-19 04:35 52.31495 4.77588 -3 ft 21 kts 321°
2026-04-19 04:35 52.31576 4.77391 -3 ft 22 kts 275°
2026-04-19 04:36 52.31572 4.77136 -3 ft 23 kts 265°
2026-04-19 04:36 52.31562 4.76867 -3 ft 24 kts 266°
2026-04-19 04:36 52.31552 4.76584 -3 ft 25 kts 268°
2026-04-19 04:36 52.31543 4.76290 -3 ft 26 kts 265°
2026-04-19 04:37 52.31531 4.75982 -3 ft 27 kts 267°
2026-04-19 04:37 52.31519 4.75663 -3 ft 29 kts 266°
2026-04-19 04:37 52.31508 4.75339 -3 ft 29 kts 267°
2026-04-19 04:37 52.31497 4.75003 -3 ft 30 kts 266°
2026-04-19 04:38 52.31489 4.74777 -3 ft 14 kts 267°
2026-04-19 04:38 52.31540 4.74664 -3 ft 15 kts 357°
2026-04-19 04:38 52.31635 4.74669 0 ft 10 kts 18°
2026-04-19 04:38 52.31670 4.74778 -1 ft 13 kts 85°
2026-04-19 04:39 52.31675 4.74970 -6 ft 21 kts 87°
2026-04-19 04:39 52.31695 4.75473 -7 ft 78 kts 85°
2026-04-19 04:39 52.31735 4.76681 -3 ft 133 kts 87°
2026-04-19 04:39 52.31796 4.78376 225 ft 154 kts 86°
2026-04-19 04:40 52.31855 4.80140 770 ft 156 kts 84°
2026-04-19 04:40 52.31904 4.81921 1346 ft 157 kts 83°
2026-04-19 04:40 52.31952 4.83749 1785 ft 169 kts 82°
2026-04-19 04:40 52.32006 4.85750 2141 ft 189 kts 88°
2026-04-19 04:41 52.31750 4.87999 2531 ft 215 kts 107°
2026-04-19 04:41 52.31124 4.90385 3004 ft 240 kts 112°
2026-04-19 04:41 52.30419 4.92996 3663 ft 261 kts 112°
2026-04-19 04:41 52.29674 4.95795 4471 ft 273 kts 110°
2026-04-19 04:42 52.29109 4.98725 5487 ft 275 kts 103°
2026-04-19 04:42 52.28589 5.01755 6519 ft 278 kts 103°
2026-04-19 04:42 52.28058 5.04823 7480 ft 283 kts 104°
2026-04-19 04:42 52.27514 5.07955 8412 ft 289 kts 104°
2026-04-19 04:43 52.26960 5.11132 9363 ft 294 kts 104°
2026-04-19 04:43 52.26395 5.14367 10294 ft 299 kts 104°
2026-04-19 04:43 52.25809 5.17719 10851 ft 318 kts 104°
2026-04-19 04:43 52.25189 5.21270 11186 ft 341 kts 104°
2026-04-19 04:44 52.24371 5.24993 11785 ft 354 kts 113°
2026-04-19 04:44 52.23182 5.28534 12647 ft 359 kts 123°
2026-04-19 04:44 52.21726 5.31889 13498 ft 364 kts 125°
2026-04-19 04:44 52.20250 5.35271 14298 ft 368 kts 125°
2026-04-19 04:45 52.18760 5.38696 15089 ft 371 kts 125°
2026-04-19 04:45 52.17261 5.42143 15884 ft 375 kts 125°
2026-04-19 04:45 52.15754 5.45612 16705 ft 376 kts 126°
2026-04-19 04:45 52.14229 5.49113 17375 ft 382 kts 126°
2026-04-19 04:46 52.12698 5.52623 18112 ft 386 kts 127°
2026-04-19 04:46 52.11135 5.56197 18804 ft 389 kts 127°
2026-04-19 04:46 52.09557 5.59800 19427 ft 393 kts 127°
2026-04-19 04:46 52.07958 5.63443 20051 ft 397 kts 127°
2026-04-19 04:47 52.06337 5.67111 20670 ft 401 kts 128°
2026-04-19 04:47 52.04530 5.70608 21278 ft 404 kts 133°
2026-04-19 04:47 52.02687 5.74036 21841 ft 408 kts 133°
2026-04-19 04:47 52.00812 5.77527 22457 ft 412 kts 133°
2026-04-19 04:48 51.98916 5.81058 23035 ft 416 kts 133°
2026-04-19 04:48 51.97004 5.84615 23626 ft 420 kts 132°
2026-04-19 04:48 51.95079 5.88207 24140 ft 422 kts 133°
2026-04-19 04:48 51.93175 5.91773 24943 ft 417 kts 133°
2026-04-19 04:49 51.91256 5.95354 25368 ft 422 kts 133°
2026-04-19 04:49 51.89322 5.98952 25798 ft 426 kts 134°
2026-04-19 04:49 51.87386 6.02548 26196 ft 431 kts 134°
2026-04-19 04:49 51.85405 6.06223 26649 ft 433 kts 134°
2026-04-19 04:50 51.83410 6.09906 27116 ft 436 kts 134°
2026-04-19 04:50 51.81400 6.13596 27544 ft 439 kts 134°
2026-04-19 04:50 51.79369 6.17315 27972 ft 442 kts 134°
2026-04-19 04:50 51.77351 6.21007 28380 ft 445 kts 134°
2026-04-19 04:51 51.75293 6.24769 28775 ft 447 kts 134°
2026-04-19 04:51 51.73223 6.28545 29159 ft 450 kts 134°
2026-04-19 04:51 51.71141 6.32338 29579 ft 450 kts 135°
2026-04-19 04:51 51.69082 6.36094 30272 ft 446 kts 135°
2026-04-19 04:52 51.67008 6.39863 30486 ft 451 kts 135°
2026-04-19 04:52 51.64914 6.43657 30746 ft 455 kts 135°
2026-04-19 04:52 51.62804 6.47475 31002 ft 458 kts 135°
2026-04-19 04:52 51.60699 6.51280 31190 ft 463 kts 135°
2026-04-19 04:53 51.58537 6.55188 31513 ft 465 kts 135°
2026-04-19 04:53 51.56387 6.59068 31855 ft 465 kts 135°
2026-04-19 04:53 51.54225 6.62965 32208 ft 466 kts 136°
2026-04-19 04:53 51.52090 6.66804 32549 ft 467 kts 136°
2026-04-19 04:54 51.49913 6.70714 32893 ft 468 kts 136°
2026-04-19 04:54 51.47741 6.74609 33231 ft 468 kts 136°
2026-04-19 04:54 51.45573 6.78494 33726 ft 465 kts 136°
2026-04-19 04:54 51.43433 6.82318 33961 ft 467 kts 136°
2026-04-19 04:55 51.41253 6.86206 34227 ft 469 kts 136°
2026-04-19 04:55 51.38980 6.89932 34473 ft 467 kts 141°
2026-04-19 04:55 51.36641 6.93555 34732 ft 467 kts 140°
2026-04-19 04:55 51.34303 6.97182 34961 ft 468 kts 140°
2026-04-19 04:56 51.31962 7.00816 35238 ft 469 kts 140°
2026-04-19 04:56 51.29617 7.04449 35506 ft 469 kts 140°
2026-04-19 04:56 51.27275 7.08072 35754 ft 469 kts 140°
2026-04-19 04:56 51.24950 7.11662 35995 ft 469 kts 140°
2026-04-19 04:57 51.22596 7.15292 36215 ft 469 kts 140°
2026-04-19 04:57 51.20241 7.18917 36428 ft 470 kts 140°
2026-04-19 04:57 51.17882 7.22543 36643 ft 471 kts 140°
2026-04-19 04:57 51.15519 7.26169 36870 ft 471 kts 140°
2026-04-19 04:58 51.13190 7.29738 37085 ft 471 kts 140°
2026-04-19 04:58 51.10825 7.33356 37292 ft 472 kts 140°
2026-04-19 04:58 51.08455 7.36977 37508 ft 471 kts 140°
2026-04-19 04:58 51.06081 7.40600 37701 ft 472 kts 140°
2026-04-19 04:59 51.03706 7.44218 37897 ft 472 kts 140°
2026-04-19 04:59 51.01331 7.47830 38074 ft 472 kts 140°
2026-04-19 04:59 50.96606 7.55002 38150 ft 472 kts 140°
2026-04-19 05:00 50.91864 7.62177 38146 ft 469 kts 140°
2026-04-19 05:00 50.87123 7.69330 38134 ft 470 kts 140°
2026-04-19 05:01 50.82405 7.76428 38119 ft 470 kts 140°
2026-04-19 05:01 50.77635 7.83541 38111 ft 470 kts 140°
2026-04-19 05:02 50.73674 7.89425 38080 ft 470 kts 140°
2026-04-19 05:02 50.68900 7.96504 38065 ft 470 kts 140°
2026-04-19 05:03 50.64205 8.03451 38076 ft 464 kts 140°
2026-04-19 05:03 50.59329 8.10120 38094 ft 462 kts 147°
2026-04-19 05:04 50.53948 8.15677 38111 ft 462 kts 151°
2026-04-19 05:04 50.48520 8.21103 38102 ft 462 kts 151°
2026-04-19 05:05 50.43137 8.26492 38103 ft 461 kts 151°
2026-04-19 05:05 50.37728 8.31898 38093 ft 460 kts 151°
2026-04-19 05:06 50.32331 8.37280 38078 ft 459 kts 152°
2026-04-19 05:06 50.27207 8.43346 38075 ft 465 kts 141°
2026-04-19 05:07 50.22549 8.50460 38095 ft 470 kts 139°
2026-04-19 05:07 50.17905 8.57576 38096 ft 469 kts 139°
2026-04-19 05:08 50.10887 8.68237 38100 ft 469 kts 140°
2026-04-19 05:09 50.06226 8.75289 38098 ft 470 kts 140°
2026-04-19 05:09 50.01513 8.82398 38099 ft 472 kts 140°
2026-04-19 05:10 49.96803 8.89486 38084 ft 470 kts 140°
2026-04-19 05:10 49.92096 8.96545 38066 ft 470 kts 140°
2026-04-19 05:11 49.87387 9.03588 38069 ft 470 kts 140°
2026-04-19 05:11 49.82697 9.10585 38055 ft 471 kts 140°
2026-04-19 05:12 49.77943 9.17653 38076 ft 475 kts 140°
2026-04-19 05:12 49.73186 9.24712 38064 ft 472 kts 140°
2026-04-19 05:13 49.68444 9.31724 38058 ft 472 kts 140°
2026-04-19 05:13 49.63723 9.38685 38062 ft 472 kts 140°
2026-04-19 05:14 49.59185 9.46059 38069 ft 475 kts 135°
2026-04-19 05:14 49.54830 9.53746 38067 ft 476 kts 135°
2026-04-19 05:15 49.50458 9.61415 38070 ft 477 kts 135°
2026-04-19 05:15 49.46057 9.69096 38052 ft 477 kts 135°
2026-04-19 05:16 49.41700 9.76676 38053 ft 475 kts 135°
2026-04-19 05:16 49.37311 9.84285 38044 ft 476 kts 135°
2026-04-19 05:17 49.32921 9.91861 38050 ft 472 kts 135°
2026-04-19 05:17 49.28540 9.99400 38051 ft 474 kts 135°
2026-04-19 05:18 49.24167 10.06903 38055 ft 474 kts 135°
2026-04-19 05:18 49.19766 10.14432 38066 ft 474 kts 135°
2026-04-19 05:19 49.15391 10.21914 38053 ft 474 kts 135°
2026-04-19 05:19 49.10931 10.29337 38096 ft 473 kts 137°
2026-04-19 05:20 49.06406 10.36542 38096 ft 472 kts 137°
2026-04-19 05:20 49.01870 10.43783 38092 ft 471 kts 137°
2026-04-19 05:21 48.97345 10.51010 38089 ft 471 kts 137°
2026-04-19 05:21 48.92809 10.58228 38082 ft 471 kts 137°
2026-04-19 05:22 48.88309 10.65376 38087 ft 470 kts 137°
2026-04-19 05:22 48.83772 10.72564 38078 ft 471 kts 137°
2026-04-19 05:23 48.79236 10.79727 38055 ft 471 kts 137°
2026-04-19 05:23 48.74679 10.86874 38060 ft 471 kts 137°
2026-04-19 05:24 48.70136 10.93978 38049 ft 471 kts 137°
2026-04-19 05:24 48.65582 11.01077 37646 ft 468 kts 137°
2026-04-19 05:24 48.63308 11.04612 36999 ft 468 kts 137°
2026-04-19 05:25 48.61033 11.08143 36219 ft 470 kts 138°
2026-04-19 05:25 48.58740 11.11696 35392 ft 473 kts 138°
2026-04-19 05:25 48.56535 11.15351 34570 ft 477 kts 135°
2026-04-19 05:25 48.54357 11.19150 33766 ft 477 kts 135°
2026-04-19 05:26 48.52179 11.22947 32805 ft 478 kts 135°
2026-04-19 05:26 48.49994 11.26742 31821 ft 480 kts 135°
2026-04-19 05:26 48.47824 11.30503 30959 ft 480 kts 134°
2026-04-19 05:26 48.45641 11.34283 30440 ft 473 kts 134°
2026-04-19 05:27 48.43502 11.37986 30037 ft 463 kts 134°
2026-04-19 05:27 48.41399 11.41617 29481 ft 456 kts 134°
2026-04-19 05:27 48.39329 11.45184 28949 ft 449 kts 135°
2026-04-19 05:27 48.37287 11.48698 28443 ft 442 kts 135°
2026-04-19 05:28 48.35270 11.52164 27932 ft 436 kts 135°
2026-04-19 05:28 48.33311 11.55525 27436 ft 430 kts 134°
2026-04-19 05:28 48.31348 11.58887 26934 ft 425 kts 134°
2026-04-19 05:28 48.29403 11.62216 26409 ft 421 kts 134°
2026-04-19 05:29 48.27339 11.65267 25877 ft 412 kts 146°
2026-04-19 05:29 48.24938 11.67533 25395 ft 402 kts 159°
2026-04-19 05:29 48.22343 11.68934 24893 ft 393 kts 171°
2026-04-19 05:29 48.19591 11.69853 24396 ft 417 kts 171°
2026-04-19 05:30 48.16750 11.70809 24028 ft 427 kts 171°
2026-04-19 05:30 48.13844 11.71804 23483 ft 429 kts 171°
2026-04-19 05:30 48.10916 11.72811 22683 ft 431 kts 171°
2026-04-19 05:30 48.08020 11.73811 22209 ft 423 kts 171°
2026-04-19 05:31 48.05160 11.74795 21661 ft 416 kts 171°
2026-04-19 05:31 48.02365 11.75754 21141 ft 409 kts 171°
2026-04-19 05:31 47.99610 11.76695 20623 ft 403 kts 171°
2026-04-19 05:31 47.96893 11.77622 20112 ft 397 kts 171°
2026-04-19 05:32 47.94214 11.78534 19614 ft 392 kts 171°
2026-04-19 05:32 47.91593 11.79401 19111 ft 387 kts 173°
2026-04-19 05:32 47.88944 11.79863 18612 ft 379 kts 181°
2026-04-19 05:32 47.86331 11.79816 18097 ft 372 kts 186°
2026-04-19 05:33 47.83764 11.79651 17607 ft 366 kts 186°
2026-04-19 05:33 47.81234 11.79498 17131 ft 361 kts 186°
2026-04-19 05:33 47.78732 11.79353 16663 ft 356 kts 186°
2026-04-19 05:33 47.76265 11.79213 16206 ft 352 kts 186°
2026-04-19 05:34 47.73860 11.79078 15752 ft 348 kts 186°
2026-04-19 05:34 47.71447 11.79083 15293 ft 347 kts 179°
2026-04-19 05:34 47.69058 11.79635 14837 ft 348 kts 169°
2026-04-19 05:34 47.66754 11.80736 14359 ft 348 kts 162°
2026-04-19 05:35 47.64496 11.82029 13867 ft 346 kts 162°
2026-04-19 05:35 47.62240 11.83304 13263 ft 347 kts 162°
2026-04-19 05:35 47.60031 11.84545 12843 ft 341 kts 162°
2026-04-19 05:35 47.57789 11.85800 12372 ft 338 kts 162°
2026-04-19 05:36 47.55624 11.87010 11911 ft 335 kts 162°
2026-04-19 05:36 47.53452 11.88222 11441 ft 333 kts 162°
2026-04-19 05:36 47.51289 11.89428 10974 ft 331 kts 161°
2026-04-19 05:36 47.49145 11.90624 10533 ft 329 kts 162°
2026-04-19 05:37 47.47040 11.91799 10360 ft 316 kts 162°
2026-04-19 05:37 47.45017 11.92919 10209 ft 304 kts 165°
2026-04-19 05:37 47.42999 11.93269 10090 ft 284 kts 190°
2026-04-19 05:37 47.41204 11.92360 9985 ft 265 kts 213°
2026-04-19 05:38 47.39653 11.90990 9879 ft 253 kts 214°
2026-04-19 05:38 47.38192 11.89691 9736 ft 243 kts 213°
2026-04-19 05:38 47.36779 11.88437 9596 ft 231 kts 213°
2026-04-19 05:38 47.35432 11.87246 9482 ft 220 kts 213°
2026-04-19 05:39 47.34199 11.85951 9475 ft 218 kts 232°
2026-04-19 05:39 47.33446 11.84026 9480 ft 217 kts 251°
2026-04-19 05:39 47.33039 11.81898 9536 ft 215 kts 259°
2026-04-19 05:39 47.32730 11.79731 9498 ft 217 kts 259°
2026-04-19 05:40 47.32417 11.77637 9375 ft 205 kts 258°
2026-04-19 05:40 47.32118 11.75649 9145 ft 194 kts 258°
2026-04-19 05:40 47.31831 11.73745 8885 ft 187 kts 258°
2026-04-19 05:40 47.31554 11.71903 8637 ft 180 kts 258°
2026-04-19 05:41 47.31288 11.70134 8390 ft 173 kts 258°
2026-04-19 05:41 47.31033 11.68438 8148 ft 164 kts 258°
2026-04-19 05:41 47.30798 11.66874 7883 ft 153 kts 258°
2026-04-19 05:41 47.30571 11.65366 7454 ft 151 kts 258°
2026-04-19 05:42 47.30342 11.63848 6985 ft 153 kts 258°
2026-04-19 05:42 47.30113 11.62324 6563 ft 151 kts 257°
2026-04-19 05:42 47.29889 11.60835 6212 ft 145 kts 257°
2026-04-19 05:42 47.29676 11.59420 5968 ft 137 kts 257°
2026-04-19 05:43 47.29465 11.58019 5738 ft 142 kts 257°
2026-04-19 05:43 47.29255 11.56620 5499 ft 141 kts 257°
2026-04-19 05:43 47.29043 11.55218 5253 ft 140 kts 257°
2026-04-19 05:43 47.28831 11.53804 5003 ft 140 kts 257°
2026-04-19 05:44 47.28623 11.52416 4750 ft 139 kts 258°
2026-04-19 05:44 47.28415 11.51027 4509 ft 138 kts 256°
2026-04-19 05:44 47.28182 11.49679 4283 ft 137 kts 253°
2026-04-19 05:44 47.27879 11.48341 4069 ft 138 kts 251°
2026-04-19 05:45 47.27557 11.47007 3849 ft 139 kts 251°
2026-04-19 05:45 47.27291 11.45638 3625 ft 139 kts 255°
2026-04-19 05:45 47.27085 11.44247 3390 ft 140 kts 257°
2026-04-19 05:45 47.26912 11.42838 3142 ft 140 kts 261°
2026-04-19 05:46 47.26763 11.41422 2884 ft 139 kts 261°
2026-04-19 05:46 47.26619 11.40011 2612 ft 138 kts 262°
2026-04-19 05:46 47.26475 11.38627 2366 ft 136 kts 261°
2026-04-19 05:46 47.26328 11.37259 2140 ft 134 kts 261°
2026-04-19 05:47 47.26185 11.35915 1963 ft 131 kts 260°
2026-04-19 05:47 47.26052 11.34686 1895 ft 97 kts 261°
2026-04-19 05:47 47.26003 11.34229 1906 ft 44 kts 261°
2026-04-19 05:47 47.25955 11.33778 1908 ft 25 kts 261°
2026-04-19 05:48 47.25919 11.33694 1901 ft 9 kts 184°
2026-04-19 05:48 47.25867 11.33766 1894 ft 13 kts 126°
2026-04-19 05:48 47.25829 11.33841 1903 ft 15 kts 126°
2026-04-19 05:48 47.25775 11.33982 1900 ft 17 kts 103°
2026-04-19 05:49 47.25782 11.34166 1897 ft 19 kts 81°
2026-04-19 05:49 47.25804 11.34372 1906 ft 21 kts 81°
2026-04-19 05:49 47.25829 11.34600 1906 ft 23 kts 81°
2026-04-19 05:49 47.25851 11.34805 1895 ft 7 kts 81°
2026-04-19 05:50 47.25846 11.34857 1898 ft 4 kts 140°
2026-04-19 05:50 47.25810 11.34868 1898 ft 7 kts 171°
2026-04-19 05:50 47.25803 11.34870 1894 ft 0 kts 168°